Monroe, WI

1:50 AM CST on December 11, 2019 (GMT -0600)
Monroe Municipal

Weather History for KEFT - August, 2019

Change the Weather History Date:

Thursday, August 22, 2019

  Actual Average Record
Temperature  
Mean Temperature 66 °F -  
Max Temperature 75 °F 70 °F 86 °F (2012)
Min Temperature 57 °F 56 °F 28 °F (1998)
Cooling Degree Days 1    
Growing Degree Days 16 (Base 50)    
Moisture  
Dew Point 54 °F    
Average Humidity 66    
Maximum Humidity 85    
Minimum Humidity 42    
Precipitation  
Precipitation 0.00 in - - ()
Sea Level Pressure  
Sea Level Pressure 30.05 in    
Wind  
Wind Speed 6 mph (NE)    
Max Wind Speed 9 mph    
Max Gust Speed -    
Visibility 10 miles    
Events      
Averages and records for this station are not official NWS values.
T = Trace of Precipitation, MM = Missing Value Source: NWS Daily Summary

Daily Weather History Graph

Daily Weather History Graph

Search for Another Location

Airport or City:

Astronomy

Aug. 22, 2019 Rise Set
Actual Time 6:12 AM CDT 7:49 PM CDT
Civil Twilight 5:42 AM CDT 8:19 PM CDT
Nautical Twilight 5:06 AM CDT 8:55 PM CDT
Astronomical Twilight 4:27 AM CDT 9:33 PM CDT
Moon 11:30 PM CDT (8/22) 12:56 PM CDT (8/22)
Length of Visible Light 14h 36m
Length of Day
13h 37m
Waning Gibbous, 59% of the Moon is Illuminated
Aug 22
Waning Gibbous
Aug 23
Last Quarter
Aug 30
New
Sep 5
First Quarter
Sep 13
Full

Hourly Weather History & Observations

Time (CDT) Temp. Dew Point Humidity Pressure Visibility Wind Dir Wind Speed Gust Speed Precip Events Conditions
12:15 AM 64.6 °F 55.8 °F 73% 30.04 in 10.0 mi North 4.6 mph - N/A   Clear
12:35 AM 63.9 °F 55.4 °F 74% 30.05 in 10.0 mi NNW 4.6 mph - N/A   Clear
12:55 AM 63.7 °F 55.0 °F 73% 30.05 in 10.0 mi NNW 4.6 mph - N/A   Clear
1:15 AM 63.7 °F 54.5 °F 72% 30.04 in 10.0 mi NNW 3.5 mph - N/A   Clear
1:35 AM 63.1 °F 54.7 °F 74% 30.03 in 10.0 mi NNW 5.8 mph - N/A   Clear
1:55 AM 62.8 °F 54.5 °F 74% 30.03 in 10.0 mi NNW 5.8 mph - N/A   Clear
2:15 AM 62.2 °F 54.5 °F 76% 30.01 in 10.0 mi NNW 4.6 mph - N/A   Clear
2:35 AM 61.5 °F 54.5 °F 78% 30.01 in 10.0 mi NNW 3.5 mph - N/A   Clear
2:55 AM 60.3 °F 54.1 °F 80% 30.00 in 10.0 mi North 5.8 mph - N/A   Clear
3:15 AM 59.9 °F 53.8 °F 80% 30.00 in 10.0 mi North 6.9 mph - N/A   Clear
3:35 AM 59.9 °F 53.4 °F 79% 30.02 in 10.0 mi North 8.1 mph - N/A   Clear
3:55 AM 59.2 °F 53.1 °F 80% 30.01 in 10.0 mi North 6.9 mph - N/A   Clear
4:35 AM 58.3 °F 52.7 °F 82% 30.01 in 10.0 mi NNE 5.8 mph - N/A   Clear
4:55 AM 58.3 °F 52.5 °F 81% 30.01 in 10.0 mi North 6.9 mph - N/A   Clear
5:15 AM 58.1 °F 52.3 °F 81% 30.02 in 10.0 mi NNE 5.8 mph - N/A   Clear
5:35 AM 57.7 °F 52.2 °F 82% 30.02 in 10.0 mi North 6.9 mph - N/A   Clear
5:55 AM 57.2 °F 52.0 °F 83% 30.02 in 10.0 mi North 5.8 mph - N/A   Clear
6:15 AM 57.4 °F 51.8 °F 82% 30.04 in 10.0 mi North 5.8 mph - N/A   Clear
6:35 AM 57.4 °F 51.8 °F 82% 30.03 in 10.0 mi North 6.9 mph - N/A   Clear
6:55 AM 57.4 °F 51.8 °F 82% 30.04 in 10.0 mi NNE 6.9 mph - N/A   Clear
7:15 AM 58.3 °F 52.7 °F 82% 30.04 in 10.0 mi NNE 6.9 mph - N/A   Clear
7:35 AM 59.7 °F 53.2 °F 79% 30.05 in 10.0 mi NNE 6.9 mph - N/A   Clear
7:55 AM 61.2 °F 54.7 °F 79% 30.05 in 10.0 mi NNE 5.8 mph - N/A   Clear
8:15 AM 62.6 °F 55.6 °F 78% 30.05 in 10.0 mi NNE 5.8 mph - N/A   Clear
8:35 AM 64.4 °F 56.8 °F 76% 30.05 in 10.0 mi NE 4.6 mph - N/A   Clear
8:55 AM 65.5 °F 57.0 °F 74% 30.05 in 10.0 mi NE 6.9 mph - N/A   Clear
9:15 AM 66.4 °F 57.9 °F 74% 30.06 in 10.0 mi NE 6.9 mph - N/A   Clear
9:35 AM 67.6 °F 58.6 °F 73% 30.06 in 10.0 mi NE 6.9 mph - N/A   Clear
9:55 AM 68.7 °F 58.3 °F 69% 30.06 in 10.0 mi NE 6.9 mph - N/A   Clear
10:15 AM 69.8 °F 57.6 °F 65% 30.06 in 10.0 mi NE 6.9 mph - N/A   Clear
10:35 AM 70.7 °F 56.5 °F 61% 30.07 in 10.0 mi NNE 6.9 mph - N/A   Clear
10:55 AM 71.1 °F 55.2 °F 57% 30.07 in 10.0 mi NE 8.1 mph - N/A   Scattered Clouds
11:15 AM 71.6 °F 54.0 °F 54% 30.07 in 10.0 mi NNE 8.1 mph - N/A   Scattered Clouds
11:35 AM 71.8 °F 49.6 °F 45% 30.06 in 10.0 mi NNE 4.6 mph - N/A   Scattered Clouds
11:55 AM 72.0 °F 52.9 °F 51% 30.06 in 10.0 mi NE 9.2 mph - N/A   Clear
12:15 PM 72.9 °F 52.9 °F 49% 30.06 in 10.0 mi NE 8.1 mph - N/A   Clear
12:35 PM 73.2 °F 51.8 °F 47% 30.06 in 10.0 mi ENE 8.1 mph - N/A   Scattered Clouds
12:55 PM 73.0 °F 51.4 °F 47% 30.05 in 10.0 mi NE 5.8 mph - N/A   Scattered Clouds
1:15 PM 73.2 °F 52.7 °F 48% 30.06 in 10.0 mi NE 5.8 mph - N/A   Clear
1:35 PM 73.4 °F 53.4 °F 49% 30.06 in 10.0 mi NNE 8.1 mph - N/A   Clear
1:55 PM 74.3 °F 51.4 °F 45% 30.06 in 10.0 mi NNE 4.6 mph - N/A   Scattered Clouds
2:15 PM 74.5 °F 53.4 °F 48% 30.06 in 10.0 mi East 4.6 mph - N/A   Mostly Cloudy
2:35 PM 75.0 °F 51.8 °F 44% 30.06 in 10.0 mi North 6.9 mph - N/A   Mostly Cloudy
2:55 PM 74.1 °F 52.3 °F 46% 30.05 in 10.0 mi North 4.6 mph - N/A   Scattered Clouds
3:15 PM 71.6 °F 53.2 °F 52% 30.05 in 10.0 mi NE 5.8 mph - N/A   Scattered Clouds
3:35 PM 75.0 °F 52.2 °F 45% 30.04 in 10.0 mi NE 4.6 mph - N/A   Scattered Clouds
3:55 PM 72.3 °F 51.6 °F 48% 30.04 in 10.0 mi NE 4.6 mph - N/A   Scattered Clouds
4:15 PM 72.5 °F 51.8 °F 48% 30.04 in 10.0 mi ENE 3.5 mph - N/A   Scattered Clouds
4:35 PM 74.8 °F 50.5 °F 42% 30.04 in 10.0 mi NNE 4.6 mph - N/A   Scattered Clouds
4:55 PM 72.3 °F 55.4 °F 55% 30.04 in 10.0 mi NE 4.6 mph - N/A   Scattered Clouds
5:15 PM 75.0 °F 53.8 °F 47% 30.04 in 10.0 mi NE 4.6 mph - N/A   Scattered Clouds
5:35 PM 71.1 °F 55.9 °F 59% 30.04 in 10.0 mi NNE 3.5 mph - N/A   Scattered Clouds
5:55 PM 73.4 °F 53.6 °F 50% 30.04 in 10.0 mi Calm Calm - N/A   Clear
6:35 PM 71.8 °F 53.4 °F 52% 30.05 in 10.0 mi NE 4.6 mph - N/A   Scattered Clouds
6:55 PM 70.7 °F 54.9 °F 57% 30.05 in 10.0 mi East 3.5 mph - N/A   Clear
7:15 PM 70.0 °F 55.4 °F 60% 30.05 in 10.0 mi Calm Calm - N/A   Clear
7:35 PM 69.8 °F 54.9 °F 59% 30.06 in 10.0 mi Calm Calm - N/A   Clear
7:55 PM 67.1 °F 55.4 °F 66% 30.07 in 10.0 mi East 8.1 mph - N/A   Scattered Clouds
8:15 PM 66.0 °F 54.5 °F 66% 30.07 in 10.0 mi East 5.8 mph - N/A   Scattered Clouds
8:35 PM 65.3 °F 54.0 °F 67% 30.08 in 10.0 mi East 8.1 mph - N/A   Clear
8:55 PM 64.6 °F 53.6 °F 68% 30.08 in 10.0 mi ENE 6.9 mph - N/A   Clear
9:15 PM 63.5 °F 53.6 °F 70% 30.09 in 10.0 mi East 5.8 mph - N/A   Clear
9:35 PM 62.4 °F 54.0 °F 74% 30.09 in 10.0 mi East 6.9 mph - N/A   Clear
9:55 PM 62.1 °F 53.8 °F 74% 30.10 in 10.0 mi East 5.8 mph - N/A   Clear
10:15 PM 61.2 °F 54.0 °F 77% 30.10 in 10.0 mi East 5.8 mph - N/A   Clear
10:35 PM 60.8 °F 54.0 °F 78% 30.10 in 10.0 mi East 5.8 mph - N/A   Clear
10:55 PM 60.6 °F 54.1 °F 79% 30.11 in 10.0 mi East 5.8 mph - N/A   Clear
11:15 PM 60.1 °F 54.5 °F 82% 30.11 in 10.0 mi East 5.8 mph - N/A   Clear
11:35 PM 60.1 °F 54.3 °F 81% 30.12 in 10.0 mi NE 5.8 mph - N/A   Clear
11:55 PM 59.0 °F 54.5 °F 85% 30.12 in 10.0 mi ENE 5.8 mph - N/A   Clear